Location: Doussal
(55.6167°N, 116.8333°W)
Time: 14:12:52
(UTC+00:00)

XW-2C - Visible Passes

Search period start: 01 December 2023 00:00
Search period end: 11 December 2023 00:00
Orbit: 464 x 475 km, 97.5° (Epoch: 01 December)

Date Brightness Start Highest point End Pass type
(mag) Time Alt. Az. Time Alt. Az. Time Alt. Az.
01 Dec ? 01:27:19 10° S 01:30:49 66° WSW 01:34:22 10° NNW visible
01 Dec ? 14:17:45 10° NNE 14:21:14 49° E 14:24:41 10° S visible
02 Dec ? 00:58:26 10° SSE 01:01:55 61° ENE 01:05:26 10° N visible
02 Dec ? 02:33:15 10° SW 02:35:26 16° W 02:37:39 10° NW visible
02 Dec ? 13:49:09 10° NE 13:52:10 25° E 13:55:09 10° SSE visible
03 Dec ? 00:29:56 10° SE 00:33:05 31° ENE 00:36:17 10° N visible
03 Dec ? 02:03:09 10° SSW 02:06:15 28° W 02:09:23 10° NNW visible
03 Dec ? 13:21:02 10° NE 13:22:56 14° E 13:24:49 10° ESE visible
03 Dec ? 14:52:57 10° N 14:56:31 71° WNW 15:00:03 10° SSW visible
04 Dec ? 00:01:50 10° ESE 00:04:19 18° ENE 00:06:50 10° NNE visible
04 Dec ? 01:33:39 10° S 01:37:08 57° WSW 01:40:39 10° NNW visible
04 Dec ? 14:23:58 10° NNE 14:27:29 56° ESE 14:30:59 10° S visible
05 Dec ? 01:04:35 10° SSE 01:08:05 71° ENE 01:11:38 10° N visible
05 Dec ? 02:39:48 10° WSW 02:41:40 14° W 02:43:34 10° NW visible
05 Dec ? 13:55:10 10° NNE 13:58:19 28° E 14:01:25 10° SSE visible
06 Dec ? 00:35:52 10° SE 00:39:07 35° ENE 00:42:24 10° N visible
06 Dec ? 02:09:21 10° SSW 02:12:20 25° W 02:15:20 10° NW visible
06 Dec ? 13:26:47 10° NE 13:28:58 15° E 13:31:09 10° SE visible
06 Dec ? 14:58:57 10° N 15:02:29 62° WNW 15:05:59 10° SSW visible
07 Dec ? 00:07:33 10° ESE 00:10:12 20° ENE 00:12:52 10° NNE visible
07 Dec ? 01:39:38 10° S 01:43:04 49° W 01:46:32 10° NNW visible
07 Dec ? 14:29:48 10° NNE 14:33:21 65° ESE 14:36:52 10° S visible
08 Dec ? 01:10:21 10° SSE 01:13:52 81° ENE 01:17:26 10° NNW visible
08 Dec ? 02:46:02 10° WSW 02:47:31 12° W 02:49:00 10° WNW visible
08 Dec ? 14:00:50 10° NNE 14:04:04 32° E 14:07:16 10° SSE visible
09 Dec ? 00:41:26 10° SE 00:44:45 40° ENE 00:48:06 10° N visible
09 Dec ? 02:15:11 10° SSW 02:18:02 22° W 02:20:53 10° NW visible
09 Dec ? 13:32:11 10° NE 13:34:37 17° E 13:37:01 10° SE visible
09 Dec ? 15:04:34 10° N 15:08:03 54° WNW 15:11:30 10° SSW visible
10 Dec ? 00:12:54 10° ESE 00:15:41 22° ENE 00:18:30 10° N visible
10 Dec ? 01:45:13 10° S 01:48:36 43° W 01:52:01 10° NNW visible
10 Dec ? 14:35:15 10° NNE 14:38:48 74° ESE 14:42:20 10° S visible
